GW6013 Weather Reports


time (UTC)temp
C
wind
direction
speed
KPH
gust
KPH
rain 1hr
cm
rain 24hr
cm
rain mn
cm
humidity
%
barometer
mb
20260507203014 18 157 4.8 20.9 0.00 0.84 0.74 30 1004.8
20260507201521 18 266 6.4 22.5 0.00 0.84 0.74 30 1004.7
20260507200021 18 328 9.7 17.7 0.00 0.84 0.74 29 1004.9
20260507194508 18 274 1.6 19.3 0.00 0.84 0.74 30 1004.9
20260507193019 18 345 4.8 12.9 0.00 0.84 0.74 30 1005.0
20260507191518 18 23 4.8 19.3 0.00 0.84 0.74 32 1005.2
20260507190024 18 25 3.2 8.0 0.00 0.84 0.74 35 1005.3
20260507184526 18 244 1.6 14.5 0.00 0.84 0.74 37 1005.6
20260507183011 18 16 1.6 17.7 0.00 0.84 0.74 35 1005.6
20260507181517 18 342 3.2 14.5 0.00 0.84 0.74 36 1005.9
20260507180019 18 280 3.2 8.0 0.00 0.84 0.74 39 1005.8
20260507174540 18 3 1.6 8.0 0.00 0.84 0.74 42 1005.6
20260507173027 17 211 3.2 19.3 0.00 0.84 0.74 44 1005.8
20260507171539 17 339 3.2 8.0 0.00 0.84 0.74 46 1005.9
20260507170015 17 285 4.8 12.9 0.00 0.84 0.74 48 1006.0
20260507164524 16 22 0.0 4.8 0.00 0.84 0.74 57 1006.1
20260507163023 16 337 1.6 8.0 0.00 0.84 0.74 55 1006.3
20260507161527 15 259 0.0 6.4 0.00 0.84 0.74 56 1006.7
20260507160031 15 276 0.0 8.0 0.00 0.84 0.74 57 1006.9
20260507154520 16 125 3.2 9.7 0.00 0.84 0.74 55 1007.1
20260507153026 15 51 3.2 11.3 0.00 0.84 0.74 55 1007.2
20260507151522 15 332 3.2 12.9 0.00 0.84 0.74 56 1007.3
20260507150026 14 323 1.6 14.5 0.00 0.84 0.74 60 1007.5
20260507144528 15 356 3.2 9.7 0.00 0.84 0.74 61 1007.6
20260507143020 13 342 6.4 11.3 0.00 0.84 0.74 64 1007.8
20260507141524 13 266 1.6 8.0 0.00 0.84 0.74 65 1007.9
20260507140036 12 257 1.6 11.3 0.00 0.84 0.74 70 1007.9
20260507134530 12 337 6.4 17.7 0.00 0.84 0.74 71 1008.0
20260507133026 12 338 3.2 12.9 0.00 0.84 0.74 77 1007.9
20260507131536 11 264 0.0 11.3 0.00 0.84 0.74 83 1008.0
20260507130027 10 320 1.6 6.4 0.00 0.84 0.74 90 1008.0
20260507124530 10 314 0.0 8.0 0.00 0.84 0.74 91 1008.1
20260507123004 10 297 0.0 1.6 0.00 0.84 0.74 93 1008.3
20260507121503 9 296 0.0 1.6 0.03 0.84 0.74 93 1007.9
20260507120005 8 225 0.0 1.6 0.08 0.84 0.74 93 1008.0
20260507114504 8 210 0.0 1.6 0.13 0.84 0.74 93 1007.9
20260507113003 8 191 0.0 1.6 0.15 0.84 0.74 92 1007.7
20260507111506 8 359 0.0 1.6 0.15 0.81 0.71 92 1007.7
20260507110004 8 338 0.0 4.8 0.13 0.76 0.66 91 1007.8
20260507104505 8 321 0.0 1.6 0.10 0.71 0.61 91 1007.7
20260507103004 8 264 0.0 8.0 0.08 0.69 0.58 91 1007.9
20260507101506 8 263 1.6 8.0 0.08 0.66 0.56 91 1007.7
20260507100009 9 260 0.0 6.4 0.08 0.64 0.53 92 1007.6
20260507094506 9 6 1.6 8.0 0.10 0.61 0.51 92 1007.2
20260507093005 10 273 0.0 4.8 0.13 0.61 0.51 92 1007.3
20260507091505 10 53 0.0 11.3 0.20 0.58 0.48 91 1006.9
20260507090007 10 262 1.6 4.8 0.28 0.56 0.46 91 1007.0
20260507084518 11 298 1.6 4.8 0.41 0.51 0.41 92 1007.0
20260507083019 11 320 0.0 1.6 0.38 0.48 0.38 91 1006.6
20260507081504 11 344 1.6 6.4 0.28 0.38 0.28 91 1007.0
20260507080007 12 334 3.2 9.7 0.18 0.28 0.18 89 1006.8
20260507074506 12 303 1.6 12.9 0.00 0.10 0.00 85 1006.9
20260507073010 12 311 3.2 9.7 0.00 0.10 0.00 85 1005.9
20260507071516 13 359 0.0 6.4 0.00 0.10 0.00 86 1005.8
20260507070016 13 323 0.0 8.0 0.00 0.10 0.00 86 1005.8
20260507064509 13 278 0.0 1.6 0.00 0.10 0.00 87 1006.0
20260507063013 13 283 0.0 3.2 0.00 0.10 0.00 89 1005.8
20260507061514 13 327 0.0 8.0 0.00 0.10 0.00 91 1005.9
20260507060010 13 138 0.0 3.2 0.00 0.10 0.00 93 1006.4
20260507054513 13 127 0.0 1.6 0.00 0.10 0.00 93 1006.2
20260507053010 13 127 0.0 1.6 0.00 0.10 0.00 93 1006.2
20260507051514 13 126 0.0 0.0 0.00 0.10 0.00 93 1006.2
20260507050035 13 252 0.0 1.6 0.00 0.10 0.00 93 1006.6
20260507044522 13 230 0.0 4.8 0.00 0.10 0.00 93 1006.3
20260507043016 13 185 0.0 3.2 0.00 0.10 0.00 92 1006.0
20260507041516 13 250 1.6 12.9 0.00 0.10 0.00 92 1006.3
20260507040018 13 248 0.0 8.0 0.00 0.10 0.00 92 1006.4
20260507034519 13 213 0.0 8.0 0.00 0.10 0.10 92 1006.7
20260507033030 13 230 3.2 11.3 0.00 0.10 0.10 92 1006.3
20260507031517 13 219 1.6 12.9 0.00 0.10 0.10 92 1006.2
20260507030018 13 226 1.6 9.7 0.00 0.10 0.10 92 1006.0
20260507024519 13 193 3.2 11.3 0.00 0.10 0.10 92 1006.1
20260507023020 13 224 1.6 12.9 0.00 0.10 0.10 92 1005.9
20260507021533 13 217 3.2 14.5 0.00 0.10 0.10 92 1006.0
20260507020023 13 169 6.4 16.1 0.00 0.10 0.10 92 1006.0
20260507014520 13 281 3.2 12.9 0.00 0.10 0.10 92 1006.5
20260507013019 13 213 1.6 12.9 0.00 0.10 0.10 92 1006.5
20260507011528 13 191 6.4 17.7 0.00 0.10 0.10 92 1006.6
20260507010034 13 256 4.8 11.3 0.00 0.10 0.10 92 1006.4
20260507004521 13 143 6.4 16.1 0.03 0.10 0.10 92 1006.4
20260507003022 13 206 4.8 16.1 0.03 0.10 0.10 92 1006.4
20260507001520 13 164 4.8 17.7 0.05 0.10 0.10 92 1006.5
20260507000024 13 234 4.8 19.3 0.05 0.10 0.10 92 1006.3
20260506234520 13 108 4.8 16.1 0.03 0.08 0.08 91 1006.3
20260506233024 13 244 3.2 17.7 0.03 0.08 0.08 91 1006.3
20260506231525 13 169 6.4 27.4 0.03 0.05 0.05 91 1006.5
20260506230026 13 231 6.4 22.5 0.03 0.05 0.05 91 1006.6
20260506224521 13 201 4.8 14.5 0.03 0.05 0.05 91 1006.6
20260506223022 13 234 3.2 17.7 0.03 0.05 0.05 90 1007.0
20260506221523 14 260 3.2 24.1 0.00 0.03 0.03 89 1007.0
20260506220031 14 219 4.8 33.8 0.00 0.03 0.03 87 1007.2
20260506214525 15 257 8.0 19.3 0.03 0.03 0.03 87 1007.1
20260506213008 14 221 4.8 16.1 0.03 0.03 0.03 87 1007.1
20260506211514 14 172 4.8 17.7 0.03 0.03 0.03 88 1007.1
20260506210018 15 179 3.2 17.7 0.03 0.03 0.03 86 1007.3
20260506204528 15 208 3.2 14.5 0.00 0.00 0.00 85 1007.3